Tracking 20040 objects as of 19-Nov-2019
Live streaming from Space Station
objects crossing your sky now

COSMOS 2209

Track COSMOS 2209 now!
COSMOS 2209 is classified as:


NORAD ID: 22112
Int'l Code: 1992-059A
Perigee: 35,726.0 km
Apogee: 35,829.3 km
Inclination: 15.0 °
Period: 1,435.3 minutes
Semi major axis: 42148 km
RCS: 5.0119 m2 (large)
Launch date: September 10, 1992
Source: Commonwealth of Independent States (former USSR) (CIS)
Launch site: TYURATAM MISSILE AND SPACE COMPLEX (TTMTR)
aabbcc
Your satellite tracking list
Your tracking list is empty




NASA's NSSDC Master Catalog

Two Line Element Set (TLE):
1 22112U 92059A   19322.32796618  .00000104  00000-0  00000+0 0  9996
2 22112  14.9857   2.2632 0012251 285.4060  85.5284  1.00329342 99559
Source of the keplerian elements: AFSPC